Winona, MN

9:50 PM CST on December 09, 2016 (GMT -0600)
Winona Municipal-Conrad

Weather History for KONA - May, 2013

Change the Weather History Date:

Saturday, May 4, 2013

  Actual Average Record
Temperature  
Mean Temperature 47 °F -  
Max Temperature 59 °F 64 °F 87 °F (2000)
Min Temperature 35 °F 47 °F 30 °F (2005)
Degree Days  
Heating Degree Days 18    
Moisture  
Dew Point 38 °F    
Average Humidity 78    
Maximum Humidity 93    
Minimum Humidity 59    
Precipitation  
Precipitation 0.07 in - - ()
Sea Level Pressure  
Sea Level Pressure 30.08 in    
Wind  
Wind Speed 5 mph (NNW)    
Max Wind Speed 12 mph    
Max Gust Speed -    
Visibility 10 miles    
Events Rain , Snow , Thunderstorm    
Averages and records for this station are not official NWS values.
T = Trace of Precipitation, MM = Missing Value Source: NWS Daily Summary

Daily Weather History Graph

Daily Weather History Graph

Search for Another Location

Airport or City:

Trip Planner

Search our weather history database for the weather conditions in past years. The results will help you decide how hot, cold, wet, or windy it might be!

Date:

Astronomy

May. 04, 2013 Rise Set
Actual Time 5:53 AM CDT 8:14 PM CDT
Civil Twilight 5:21 AM CDT 8:46 PM CDT
Nautical Twilight 4:41 AM CDT 9:26 PM CDT
Astronomical Twilight 3:57 AM CDT 10:11 PM CDT
Moon 3:03 AM CDT (5/4) 3:02 PM CDT (5/4)
Length of Visible Light 15h 24m
Length of Day
14h 20m
Waning Crescent, 27% of the Moon is Illuminated
May 4
Waning Crescent
May 9
New
May 17
First Quarter
May 24
Full
May 31
Last Quarter

Hourly Weather History & Observations

Time (CDT) Temp. Windchill Dew Point Humidity Pressure Visibility Wind Dir Wind Speed Gust Speed Precip Events Conditions
12:16 AM 35.6 °F 29.9 °F 33.8 °F 93% 30.08 in 10.0 mi NE 6.9 mph - N/A   Overcast
12:35 AM 35.6 °F 31.7 °F 33.8 °F 93% 30.07 in 10.0 mi North 4.6 mph - N/A   Overcast
12:56 AM 35.6 °F - 33.8 °F 93% 30.07 in 10.0 mi Calm Calm - N/A   Overcast
1:16 AM 35.6 °F - 33.8 °F 93% 30.08 in 10.0 mi Calm Calm - N/A   Overcast
1:35 AM 35.6 °F 32.8 °F 33.8 °F 93% 30.07 in 10.0 mi NNW 3.5 mph - N/A   Light Drizzle
1:56 AM 35.6 °F 31.7 °F 33.8 °F 93% 30.07 in 7.0 mi NNW 4.6 mph - N/A Snow , Thunderstorm Light Thunderstorms and Snow
2:16 AM 35.6 °F 31.7 °F 33.8 °F 93% 30.07 in 10.0 mi NW 4.6 mph - N/A   Overcast
2:35 AM 35.6 °F 31.7 °F 33.8 °F 93% 30.07 in 10.0 mi NNW 4.6 mph - N/A   Overcast
2:56 AM 35.6 °F 29.9 °F 33.8 °F 93% 30.06 in 10.0 mi NNW 6.9 mph - N/A   Overcast
3:16 AM 35.6 °F 29.9 °F 33.8 °F 93% 30.05 in 10.0 mi North 6.9 mph - N/A   Overcast
3:35 AM 35.6 °F 30.7 °F 33.8 °F 93% 30.06 in 7.0 mi NNW 5.8 mph - N/A Rain Rain
3:56 AM 35.6 °F 29.9 °F 33.8 °F 93% 30.06 in 3.0 mi NNW 6.9 mph - N/A Rain Rain
4:16 AM 35.6 °F 30.7 °F 33.8 °F 93% 30.05 in 10.0 mi NNW 5.8 mph - 0.01 in   Overcast
4:35 AM 35.6 °F 29.9 °F 33.8 °F 93% 30.06 in 2.5 mi NNW 6.9 mph - 0.07 in Rain Heavy Rain
4:56 AM 35.6 °F 30.7 °F 33.8 °F 93% 30.06 in 10.0 mi NNW 5.8 mph - N/A   Overcast
5:16 AM 35.6 °F 32.8 °F 33.8 °F 93% 30.07 in 10.0 mi NNW 3.5 mph - N/A   Light Drizzle
5:36 AM 35.6 °F 30.7 °F 33.8 °F 93% 30.07 in 10.0 mi NNW 5.8 mph - N/A   Overcast
5:55 AM 35.6 °F 30.7 °F 33.8 °F 93% 30.07 in 10.0 mi NNW 5.8 mph - N/A   Overcast
6:16 AM 35.6 °F 31.7 °F 33.8 °F 93% 30.07 in 10.0 mi NNW 4.6 mph - N/A   Overcast
6:36 AM 35.6 °F 31.7 °F 33.8 °F 93% 30.07 in 10.0 mi NNW 4.6 mph - N/A   Overcast
6:55 AM 35.6 °F 31.7 °F 33.8 °F 93% 30.07 in 10.0 mi NNW 4.6 mph - N/A   Overcast
7:16 AM 35.6 °F 32.8 °F 33.8 °F 93% 30.08 in 10.0 mi NNW 3.5 mph - N/A   Overcast
7:36 AM 35.6 °F 31.7 °F 33.8 °F 93% 30.08 in 10.0 mi NNW 4.6 mph - N/A   Overcast
7:55 AM 35.6 °F - 33.8 °F 93% 30.08 in 10.0 mi Calm Calm - N/A   Overcast
8:16 AM 37.4 °F - 35.6 °F 93% 30.09 in 10.0 mi Calm Calm - N/A   Overcast
8:36 AM 37.4 °F - 35.6 °F 93% 30.08 in 10.0 mi Calm Calm - N/A   Overcast
8:55 AM 37.4 °F 33.8 °F 35.6 °F 93% 30.09 in 10.0 mi NE 4.6 mph - N/A   Overcast
9:16 AM 39.2 °F 35.0 °F 35.6 °F 87% 30.08 in 10.0 mi NNE 5.8 mph - N/A   Overcast
9:36 AM 41.0 °F 37.1 °F 35.6 °F 81% 30.07 in 10.0 mi NE 5.8 mph - N/A   Overcast
9:55 AM 41.0 °F 37.1 °F 35.6 °F 81% 30.08 in 10.0 mi NE 5.8 mph - N/A   Overcast
10:16 AM 42.8 °F 40.1 °F 35.6 °F 76% 30.08 in 10.0 mi NE 4.6 mph - N/A   Overcast
10:36 AM 42.8 °F 39.3 °F 35.6 °F 76% 30.09 in 10.0 mi ENE 5.8 mph - N/A   Overcast
10:55 AM 42.8 °F 40.1 °F 35.6 °F 76% 30.09 in 10.0 mi NE 4.6 mph - N/A   Overcast
11:16 AM 44.6 °F 41.4 °F 37.4 °F 76% 30.09 in 10.0 mi NNE 5.8 mph - N/A   Overcast
11:36 AM 46.4 °F 43.5 °F 37.4 °F 71% 30.10 in 10.0 mi ENE 5.8 mph - N/A   Overcast
11:55 AM 46.4 °F - 39.2 °F 76% 30.10 in 10.0 mi Calm Calm - N/A   Overcast
12:16 PM 48.2 °F - 41.0 °F 76% 30.10 in 10.0 mi Calm Calm - N/A   Overcast
12:41 PM 48.2 °F - 39.2 °F 71% 30.09 in 10.0 mi Calm Calm - N/A   Overcast
12:55 PM 50.0 °F - 41.0 °F 71% 30.09 in 10.0 mi NNE 3.5 mph - N/A   Scattered Clouds
1:16 PM 51.8 °F - 41.0 °F 67% 30.09 in 10.0 mi North 3.5 mph - N/A   Scattered Clouds
1:36 PM 51.8 °F - 42.8 °F 71% 30.09 in 10.0 mi NW 3.5 mph - N/A   Overcast
1:55 PM 53.6 °F - 42.8 °F 67% 30.09 in 10.0 mi North 3.5 mph - N/A   Mostly Cloudy
2:16 PM 53.6 °F - 42.8 °F 67% 30.08 in 10.0 mi NNW 4.6 mph - N/A   Mostly Cloudy
2:36 PM 53.6 °F - 42.8 °F 67% 30.08 in 10.0 mi NNW 8.1 mph - N/A   Scattered Clouds
3:16 PM 53.6 °F - 41.0 °F 62% 30.07 in 10.0 mi NNW 10.4 mph - N/A   Scattered Clouds
3:36 PM 55.4 °F - 42.8 °F 63% 30.07 in 10.0 mi NW 8.1 mph - N/A   Clear
3:55 PM 55.4 °F - 42.8 °F 63% 30.06 in 10.0 mi NW 9.2 mph - N/A   Clear
4:16 PM 57.2 °F - 42.8 °F 59% 30.06 in 10.0 mi NNW 10.4 mph - N/A   Clear
4:36 PM 59.0 °F - 44.6 °F 59% 30.05 in 10.0 mi NW 10.4 mph - N/A   Clear
4:56 PM 59.0 °F - 44.6 °F 59% 30.05 in 10.0 mi NNW 11.5 mph - N/A   Clear
5:16 PM 59.0 °F - 44.6 °F 59% 30.06 in 10.0 mi NW 11.5 mph - N/A   Clear
5:36 PM 55.4 °F - 42.8 °F 63% 30.06 in 10.0 mi NW 10.4 mph - N/A   Scattered Clouds
5:56 PM 55.4 °F - 42.8 °F 63% 30.07 in 10.0 mi NW 11.5 mph - N/A   Scattered Clouds
6:16 PM 55.4 °F - 42.8 °F 63% 30.07 in 10.0 mi NNW 10.4 mph - N/A   Clear
6:36 PM 55.4 °F - 42.8 °F 63% 30.07 in 10.0 mi NW 9.2 mph - N/A   Clear
6:56 PM 53.6 °F - 42.8 °F 67% 30.07 in 10.0 mi NW 8.1 mph - N/A   Clear
7:16 PM 53.6 °F - 42.8 °F 67% 30.08 in 10.0 mi NNW 9.2 mph - N/A   Clear
7:36 PM 53.6 °F - 42.8 °F 67% 30.08 in 10.0 mi North 4.6 mph - N/A   Clear
7:56 PM 53.6 °F - 42.8 °F 67% 30.09 in 10.0 mi North 4.6 mph - N/A   Clear
8:16 PM 51.8 °F - 41.0 °F 67% 30.10 in 10.0 mi North 3.5 mph - N/A   Clear
8:36 PM 51.8 °F - 39.2 °F 62% 30.11 in 10.0 mi North 3.5 mph - N/A   Clear
8:56 PM 51.8 °F - 41.0 °F 67% 30.11 in 10.0 mi NNW 4.6 mph - N/A   Clear
9:16 PM 50.0 °F - 39.2 °F 66% 30.11 in 10.0 mi North 5.8 mph - N/A   Clear
9:35 PM 50.0 °F - 39.2 °F 66% 30.12 in 10.0 mi NNW 5.8 mph - N/A   Clear
9:56 PM 48.2 °F - 37.4 °F 66% 30.12 in 10.0 mi North 4.6 mph - N/A   Clear
10:16 PM 48.2 °F - 37.4 °F 66% 30.12 in 10.0 mi NNW 4.6 mph - N/A   Clear
10:35 PM 48.2 °F - 39.2 °F 71% 30.12 in 10.0 mi NNW 5.8 mph - N/A   Clear
10:56 PM 48.2 °F - 39.2 °F 71% 30.12 in 10.0 mi North 3.5 mph - N/A   Clear
11:16 PM 48.2 °F - 39.2 °F 71% 30.12 in 10.0 mi NNW 4.6 mph - N/A   Clear
11:35 PM 48.2 °F - 41.0 °F 76% 30.12 in 7.0 mi NNW 4.6 mph - N/A   Clear
11:56 PM 48.2 °F - 41.0 °F 76% 30.12 in 3.0 mi NNW 5.8 mph - N/A   Haze